Location: Pella
(41.4080°N, 92.9160°W)
Time: 09:00:59
(UTC-06:00)

Iridium 91 - Visible Passes

Search period start: 24 November 2014 00:00
Search period end: 04 December 2014 00:00
Orbit: 775 x 780 km, 86.4° (Epoch: 23 November)

Date Brightness Start Highest point End Pass type
(mag) Time Alt. Az. Time Alt. Az. Time Alt. Az.
24 Nov 5.8 04:40:42 10° N 04:45:54 65° E 04:51:03 10° SSE visible
24 Nov 7.0 06:23:17 10° NW 06:25:58 14° WNW 06:28:40 10° WSW visible
24 Nov 6.2 17:37:31 10° SSW 17:42:38 60° W 17:47:47 10° N visible
25 Nov 6.9 04:09:06 19° NNE 04:12:15 35° E 04:16:59 10° SSE visible
25 Nov 6.4 05:49:47 16° NW 05:52:46 26° W 05:57:00 10° SW visible
25 Nov 8.5 18:48:11 10° W 18:50:25 13° WNW 18:52:39 10° NW visible
26 Nov 7.8 03:38:04 20° ENE 03:38:28 20° ENE 03:42:13 10° ESE visible
26 Nov 5.7 05:18:41 44° WNW 05:19:26 47° W 05:24:23 10° SSW visible
26 Nov 7.9 18:12:27 10° SW 18:16:32 23° WNW 18:20:38 10° NNW visible
27 Nov 5.7 04:47:03 58° S 04:47:03 58° S 04:51:11 10° S visible
27 Nov 6.9 17:37:54 10° SSW 17:42:47 41° W 17:47:42 10° NNW visible
28 Nov 7.2 04:15:10 25° SSE 04:15:10 25° SSE 04:17:27 10° SSE visible
28 Nov 7.5 05:55:45 11° WSW 05:55:45 11° WSW 05:56:08 10° WSW visible
28 Nov 5.8 17:03:58 10° S 17:09:10 76° W 17:14:23 10° N visible
29 Nov 8.3 03:43:07 10° SE 03:43:07 10° SE 03:43:09 10° SE visible
29 Nov 7.6 05:23:41 12° SW 05:23:41 12° SW 05:24:00 10° SW visible
29 Nov 8.3 18:13:38 10° WSW 18:16:48 16° WNW 18:20:00 10° NW visible
30 Nov 7.6 17:38:30 10° SW 17:42:58 29° W 17:47:28 10° NNW visible
01 Dec 6.5 17:04:13 10° SSW 17:09:16 52° W 17:14:22 10° N visible
02 Dec 8.6 18:15:43 10° W 18:17:08 11° WNW 18:18:32 10° NW visible
03 Dec 8.1 17:39:24 10° WSW 17:43:12 20° WNW 17:47:02 10° NNW visible
